Regional Weather Roundup
Issued by NWS

Home | Current Version | Previous Version | Text Only | Print | Product List | Glossary On
Versions: 1 2 3 4 5 6 7 8 9 10 11 12 13 14 15 16 17 18 19 20 21 22 23 24 25 26 27 28 29 30 31 32 33 34 35 36 37 38 39 40 41 42 43 44 45 46 47 48 49 50
000
ASCA42 TJSJ 210510
RWRPR
PUERTO RICO/U.S. VIRGIN ISLANDS HOURLY WEATHER ROUNDUP
NATIONAL WEATHER SERVICE SAN JUAN PR
100 AM AST TUE APR 21 2015

PRZ001-004-210600-
PUERTO RICO

CITY           SKY/WX    TMP DP  RH WIND       PRES   REMARKS
SAN JUAN LMM   PTCLDY    79  72  78 SE3       30.02F
PONCE          PTCLDY    73  68  83 NE6       29.97
CEIBA          CLOUDY    79  72  78 E9        30.04F
$$

PRZ006-007-210600-
U.S. VIRGIN ISLANDS

CITY           SKY/WX    TMP DP  RH WIND       PRES   REMARKS
CHARLOTTE AMA  CLEAR     77  70  78 E8        30.01
$$

HOURLY WEATHER ROUNDUP FOR THE NEWS MEDIA

CITY           SKY/WX    TMP DP  RH WIND       PRES   REMARKS
ORLANDO        CLOUDY    68  64  87 S6        29.94F
NEW YORK       TSTM      54  52  93 SE14G24   29.58F FOG
NEWARK         FOG       53  52  96 E7        29.58S THUNDER VSB 1/2
CHICAGO        PTCLDY    42  33  70 W14       29.61S
HARTFORD       CLOUDY    54  54 100 SE16G24   29.69F FOG
BOSTON         LGT RAIN  51  51 100 SE15      29.69F FOG
DALLAS         PTCLDY    57  45  64 E3        30.02R
PHILADELPHIA   LGT RAIN  61  56  83 S7        29.54F
LOS ANGELES    PTCLDY    57  52  83 SW5       29.90S
WASHINGTON DC  TSTM      60  53  77 N9        29.58S



USA.gov is the U.S. government's official web portal to all federal, state and local government web resources and services.